| time (UTC) | temp C | wind direction | speed KPH | gust KPH | rain 1hr cm | rain 24hr cm | rain mn cm | humidity % | barometer mb |
| 20260507084519 | 9 | 289 | 0.0 | 6.4 | 0.00 | 0.71 | 0.36 | 83 | 1013.1 |
| 20260507083005 | 9 | 300 | 0.0 | 4.8 | 0.00 | 0.71 | 0.36 | 83 | 1013.0 |
| 20260507081501 | 9 | 292 | 0.0 | 4.8 | 0.00 | 0.71 | 0.36 | 83 | 1012.9 |
| 20260507080016 | 8 | 265 | 0.0 | 6.4 | 0.00 | 0.71 | 0.36 | 83 | 1012.7 |
| 20260507074555 | 8 | 277 | 0.0 | 6.4 | 0.03 | 0.71 | 0.36 | 84 | 1012.6 |
| 20260507073102 | 8 | 296 | 0.0 | 3.2 | 0.03 | 0.71 | 0.36 | 84 | 1012.5 |
| 20260507071552 | 8 | 295 | 0.0 | 6.4 | 0.05 | 0.71 | 0.36 | 84 | 1012.3 |
| 20260507070057 | 8 | 289 | 0.0 | 1.6 | 0.05 | 0.71 | 0.36 | 84 | 1012.1 |
| 20260507064553 | 8 | 289 | 0.0 | 4.8 | 0.08 | 0.71 | 0.36 | 84 | 1012.0 |
| 20260507063046 | 8 | 290 | 0.0 | 3.2 | 0.08 | 0.69 | 0.33 | 84 | 1011.8 |
| 20260507061545 | 8 | 325 | 0.0 | 6.4 | 0.05 | 0.66 | 0.33 | 84 | 1011.7 |
| 20260507060042 | 8 | 267 | 0.0 | 4.8 | 0.05 | 0.64 | 0.30 | 84 | 1011.5 |
| 20260507054541 | 8 | 300 | 0.0 | 4.8 | 0.05 | 0.61 | 0.28 | 84 | 1011.3 |
| 20260507053039 | 8 | 319 | 0.0 | 8.0 | 0.05 | 0.61 | 0.25 | 85 | 1011.2 |
| 20260507051534 | 8 | 284 | 0.0 | 4.8 | 0.05 | 0.61 | 0.25 | 85 | 1011.1 |
| 20260507050035 | 8 | 309 | 0.0 | 1.6 | 0.03 | 0.58 | 0.23 | 85 | 1010.9 |
| 20260507044531 | 8 | 309 | 0.0 | 0.0 | 0.05 | 0.58 | 0.23 | 85 | 1010.6 |
| 20260507043029 | 8 | 309 | 0.0 | 0.0 | 0.03 | 0.56 | 0.23 | 85 | 1010.5 |
| 20260507041527 | 8 | 274 | 0.0 | 4.8 | 0.03 | 0.56 | 0.23 | 85 | 1010.3 |
| 20260507040024 | 9 | 273 | 0.0 | 4.8 | 0.05 | 0.56 | 0.23 | 85 | 1010.2 |
| 20260507034523 | 9 | 188 | 0.0 | 6.4 | 0.03 | 0.53 | 0.20 | 85 | 1010.1 |
| 20260507033028 | 9 | 229 | 0.0 | 8.0 | 0.03 | 0.53 | 0.20 | 85 | 1009.8 |
| 20260507031524 | 9 | 140 | 0.0 | 0.0 | 0.03 | 0.53 | 0.20 | 85 | 1009.7 |
| 20260507030019 | 9 | 140 | 0.0 | 3.2 | 0.00 | 0.51 | 0.18 | 85 | 1009.6 |
| 20260507024520 | 9 | 139 | 0.0 | 4.8 | 0.03 | 0.51 | 0.18 | 85 | 1009.4 |
| 20260507023010 | 9 | 136 | 0.0 | 6.4 | 0.05 | 0.51 | 0.18 | 85 | 1009.4 |
| 20260507021509 | 9 | 136 | 0.0 | 6.4 | 0.08 | 0.51 | 0.18 | 85 | 1009.3 |
| 20260507020009 | 9 | 134 | 0.0 | 3.2 | 0.13 | 0.51 | 0.18 | 85 | 1009.2 |
| 20260507014522 | 10 | 134 | 0.0 | 4.8 | 0.10 | 0.51 | 0.15 | 85 | 1009.1 |
| 20260507013018 | 10 | 138 | 0.0 | 0.0 | 0.08 | 0.48 | 0.15 | 85 | 1008.9 |
| 20260507011528 | 10 | 138 | 0.0 | 3.2 | 0.05 | 0.43 | 0.10 | 85 | 1008.9 |
| 20260507010118 | 9 | 138 | 0.0 | 0.0 | 0.03 | 0.43 | 0.08 | 85 | 1009.0 |
| 20260507004517 | 9 | 138 | 0.0 | 0.0 | 0.00 | 0.41 | 0.05 | 85 | 1008.9 |
| 20260507003015 | 9 | 138 | 0.0 | 0.0 | 0.00 | 0.41 | 0.05 | 85 | 1008.9 |
| 20260507001519 | 10 | 138 | 0.0 | 0.0 | 0.00 | 0.41 | 0.05 | 85 | 1008.9 |
| 20260507000014 | 10 | 138 | 0.0 | 0.0 | 0.03 | 0.41 | 0.05 | 85 | 1008.8 |
| 20260506234513 | 10 | 138 | 0.0 | 4.8 | 0.03 | 0.41 | 0.05 | 85 | 1008.9 |
| 20260506233013 | 10 | 139 | 0.0 | 1.6 | 0.05 | 0.41 | 0.05 | 85 | 1008.9 |
| 20260506231511 | 10 | 139 | 0.0 | 0.0 | 0.05 | 0.41 | 0.05 | 85 | 1009.0 |
| 20260506230010 | 10 | 138 | 0.0 | 6.4 | 0.05 | 0.38 | 0.05 | 85 | 1009.0 |
| 20260506224509 | 10 | 138 | 0.0 | 1.6 | 0.05 | 0.38 | 0.05 | 85 | 1009.0 |
| 20260506223014 | 10 | 138 | 0.0 | 4.8 | 0.03 | 0.36 | 0.03 | 85 | 1009.0 |
| 20260506221506 | 10 | 198 | 0.0 | 6.4 | 0.00 | 0.33 | 0.00 | 85 | 1008.9 |
| 20260506220004 | 10 | 140 | 0.0 | 6.4 | 0.00 | 0.33 | 0.33 | 85 | 1008.7 |
| 20260506214502 | 10 | 150 | 0.0 | 0.0 | 0.00 | 0.33 | 0.33 | 85 | 1008.5 |
| 20260506213001 | 10 | 142 | 0.0 | 8.0 | 0.00 | 0.33 | 0.33 | 85 | 1008.3 |
| 20260506211600 | 10 | 159 | 0.0 | 1.6 | 0.00 | 0.33 | 0.33 | 85 | 1008.3 |
| 20260506210058 | 10 | 137 | 0.0 | 0.0 | 0.05 | 0.33 | 0.33 | 84 | 1008.2 |
| 20260506204559 | 10 | 137 | 0.0 | 0.0 | 0.05 | 0.33 | 0.33 | 85 | 1008.1 |
| 20260506203057 | 10 | 136 | 0.0 | 0.0 | 0.13 | 0.33 | 0.33 | 85 | 1008.1 |
| 20260506201557 | 10 | 136 | 1.6 | 6.4 | 0.15 | 0.33 | 0.33 | 85 | 1008.1 |
| 20260506200059 | 11 | 137 | 0.0 | 6.4 | 0.15 | 0.30 | 0.30 | 85 | 1008.0 |
| 20260506194555 | 11 | 140 | 0.0 | 6.4 | 0.15 | 0.28 | 0.28 | 85 | 1008.0 |
| 20260506193052 | 11 | 108 | 0.0 | 3.2 | 0.15 | 0.23 | 0.23 | 85 | 1007.6 |
| 20260506191550 | 11 | 134 | 0.0 | 0.0 | 0.13 | 0.18 | 0.18 | 85 | 1007.3 |
| 20260506190052 | 11 | 133 | 0.0 | 4.8 | 0.10 | 0.15 | 0.15 | 85 | 1006.9 |
| 20260506184551 | 11 | 144 | 0.0 | 8.0 | 0.10 | 0.13 | 0.13 | 85 | 1006.8 |
| 20260506183049 | 12 | 146 | 0.0 | 0.0 | 0.08 | 0.08 | 0.08 | 85 | 1006.6 |
| 20260506181545 | 12 | 144 | 0.0 | 6.4 | 0.05 | 0.05 | 0.05 | 85 | 1006.5 |
| 20260506180047 | 12 | 144 | 0.0 | 3.2 | 0.05 | 0.05 | 0.05 | 84 | 1006.5 |
| 20260506174545 | 12 | 154 | 0.0 | 3.2 | 0.03 | 0.03 | 0.03 | 84 | 1006.4 |
| 20260506173121 | 12 | 140 | 0.0 | 4.8 | 0.00 | 0.00 | 0.00 | 84 | 1006.2 |
| 20260506171543 | 12 | 284 | 0.0 | 3.2 | 0.00 | 0.00 | 0.00 | 83 | 1006.1 |
| 20260506170045 | 12 | 307 | 0.0 | 4.8 | 0.00 | 0.00 | 0.00 | 83 | 1006.1 |
| 20260506164548 | 12 | 182 | 0.0 | 0.0 | 0.00 | 0.00 | 0.00 | 83 | 1006.1 |
| 20260506163043 | 12 | 182 | 0.0 | 1.6 | 0.00 | 0.00 | 0.00 | 82 | 1006.0 |
| 20260506161542 | 12 | 313 | 0.0 | 1.6 | 0.00 | 0.00 | 0.00 | 82 | 1006.1 |
| 20260506160045 | 12 | 327 | 0.0 | 4.8 | 0.00 | 0.00 | 0.00 | 82 | 1005.9 |
| 20260506154548 | 12 | 259 | 0.0 | 4.8 | 0.00 | 0.00 | 0.00 | 82 | 1005.8 |
| 20260506153046 | 12 | 288 | 0.0 | 1.6 | 0.00 | 0.00 | 0.00 | 82 | 1005.8 |
| 20260506151540 | 13 | 288 | 0.0 | 3.2 | 0.00 | 0.00 | 0.00 | 82 | 1005.7 |
| 20260506150043 | 13 | 281 | 1.6 | 12.9 | 0.00 | 0.00 | 0.00 | 82 | 1005.4 |
| 20260506144542 | 13 | 332 | 0.0 | 6.4 | 0.00 | 0.00 | 0.00 | 81 | 1005.4 |
| 20260506143042 | 13 | 292 | 1.6 | 17.7 | 0.00 | 0.00 | 0.00 | 79 | 1005.2 |
| 20260506141537 | 15 | 311 | 1.6 | 14.5 | 0.00 | 0.00 | 0.00 | 75 | 1005.1 |
| 20260506140037 | 16 | 285 | 4.8 | 12.9 | 0.00 | 0.25 | 0.00 | 73 | 1005.0 |
| 20260506134536 | 17 | 278 | 0.0 | 8.0 | 0.00 | 0.25 | 0.00 | 71 | 1004.7 |
| 20260506133038 | 17 | 262 | 0.0 | 1.6 | 0.00 | 0.25 | 0.00 | 69 | 1004.5 |
| 20260506131545 | 17 | 240 | 0.0 | 1.6 | 0.00 | 0.25 | 0.00 | 67 | 1004.3 |
| 20260506130049 | 17 | 150 | 0.0 | 0.0 | 0.00 | 0.28 | 0.00 | 62 | 1004.2 |
| 20260506124533 | 17 | 150 | 0.0 | 4.8 | 0.00 | 0.28 | 0.00 | 61 | 1004.1 |
| 20260506123033 | 17 | 150 | 0.0 | 1.6 | 0.00 | 0.28 | 0.00 | 59 | 1004.1 |
| 20260506121533 | 17 | 158 | 0.0 | 1.6 | 0.00 | 0.28 | 0.00 | 61 | 1004.3 |
| 20260506120032 | 17 | 167 | 0.0 | 6.4 | 0.00 | 0.28 | 0.00 | 60 | 1004.3 |
| 20260506114534 | 18 | 139 | 0.0 | 11.3 | 0.00 | 0.28 | 0.00 | 60 | 1004.3 |
| 20260506113029 | 18 | 200 | 0.0 | 6.4 | 0.00 | 0.28 | 0.00 | 58 | 1004.3 |
| 20260506111527 | 18 | 191 | 0.0 | 4.8 | 0.00 | 0.28 | 0.00 | 53 | 1004.5 |
| 20260506110025 | 18 | 142 | 1.6 | 9.7 | 0.00 | 0.28 | 0.00 | 59 | 1004.7 |
| 20260506104520 | 18 | 227 | 0.0 | 6.4 | 0.00 | 0.28 | 0.00 | 60 | 1004.7 |
| 20260506103021 | 17 | 121 | 0.0 | 6.4 | 0.00 | 0.28 | 0.00 | 61 | 1004.8 |
| 20260506101625 | 18 | 30 | 0.0 | 1.6 | 0.00 | 0.28 | 0.00 | 60 | 1004.8 |
| 20260506100016 | 18 | 146 | 0.0 | 6.4 | 0.00 | 0.28 | 0.00 | 61 | 1005.1 |
| 20260506094522 | 17 | 141 | 0.0 | 4.8 | 0.00 | 0.28 | 0.00 | 64 | 1005.0 |
| 20260506093015 | 17 | 143 | 1.6 | 11.3 | 0.00 | 0.28 | 0.00 | 66 | 1005.0 |
| 20260506091512 | 17 | 159 | 0.0 | 8.0 | 0.00 | 0.28 | 0.00 | 66 | 1005.0 |
| 20260506090005 | 16 | 209 | 0.0 | 8.0 | 0.00 | 0.28 | 0.00 | 69 | 1004.9 |